| time (UTC) | temp F | wind direction | speed knots | gust knots | rain 1hr in | rain 24hr in | rain mn in | humidity % | barometer mb |
| 20260506194027 | 51 | 0 | 0.0 | 0.0 | 0.00 | 0.02 | 0.02 | 83 | 1004.6 |
| 20260506193027 | 51 | 0 | 0.0 | 0.0 | 0.00 | 0.02 | 0.02 | 83 | 1004.6 |
| 20260506193024 | 52 | 0 | 0.0 | 0.0 | 0.00 | 0.02 | 0.02 | 80 | 1004.5 |
| 20260506192026 | 52 | 0 | 0.0 | 0.0 | 0.00 | 0.02 | 0.02 | 79 | 1004.5 |
| 20260506191026 | 52 | 0 | 0.0 | 0.0 | 0.00 | 0.03 | 0.02 | 79 | 1004.4 |
| 20260506190026 | 52 | 0 | 0.0 | 0.0 | 0.00 | 0.03 | 0.02 | 78 | 1004.2 |
| 20260506185019 | 53 | 0 | 0.0 | 0.0 | 0.00 | 0.04 | 0.02 | 78 | 1004.1 |
| 20260506184026 | 53 | 0 | 0.0 | 0.0 | 0.00 | 0.04 | 0.02 | 78 | 1004.1 |
| 20260506184022 | 53 | 0 | 0.0 | 0.0 | 0.00 | 0.04 | 0.02 | 78 | 1004.0 |
| 20260506183027 | 53 | 0 | 0.0 | 0.0 | 0.00 | 0.06 | 0.02 | 79 | 1003.8 |
| 20260506182026 | 53 | 0 | 0.0 | 0.0 | 0.00 | 0.08 | 0.02 | 78 | 1003.6 |
| 20260506181025 | 53 | 0 | 0.0 | 0.0 | 0.00 | 0.13 | 0.02 | 78 | 1003.6 |
| 20260506181021 | 53 | 0 | 0.0 | 0.0 | 0.00 | 0.13 | 0.02 | 78 | 1003.5 |
| 20260506180027 | 54 | 0 | 0.0 | 0.0 | 0.00 | 0.17 | 0.02 | 77 | 1003.4 |
| 20260506175026 | 54 | 0 | 0.0 | 0.0 | 0.00 | 0.23 | 0.02 | 76 | 1003.2 |
| 20260506174030 | 54 | 0 | 0.0 | 0.0 | 0.00 | 0.28 | 0.02 | 76 | 1003.2 |
| 20260506174026 | 54 | 0 | 0.0 | 0.0 | 0.00 | 0.28 | 0.02 | 77 | 1003.2 |
| 20260506173025 | 54 | 0 | 0.0 | 0.0 | 0.00 | 0.32 | 0.02 | 77 | 1003.0 |
| 20260506172025 | 54 | 0 | 0.0 | 0.0 | 0.00 | 0.32 | 0.02 | 77 | 1003.0 |
| 20260506171025 | 54 | 0 | 0.0 | 0.0 | 0.00 | 0.32 | 0.02 | 77 | 1003.0 |
| 20260506170025 | 54 | 0 | 0.0 | 0.0 | 0.00 | 0.32 | 0.02 | 78 | 1002.9 |
| 20260506165024 | 54 | 0 | 0.0 | 0.0 | 0.00 | 0.32 | 0.02 | 80 | 1002.9 |
| 20260506164025 | 54 | 0 | 0.0 | 0.0 | 0.00 | 0.32 | 0.02 | 80 | 1002.8 |
| 20260506163025 | 54 | 0 | 0.0 | 0.0 | 0.00 | 0.32 | 0.02 | 79 | 1002.8 |
| 20260506162039 | 54 | 0 | 0.0 | 0.0 | 0.00 | 0.32 | 0.02 | 79 | 1002.8 |
| 20260506162028 | 54 | 0 | 0.0 | 0.0 | 0.00 | 0.32 | 0.02 | 80 | 1002.8 |
| 20260506161025 | 54 | 0 | 0.0 | 0.0 | 0.00 | 0.32 | 0.02 | 80 | 1002.8 |
| 20260506160026 | 54 | 0 | 0.0 | 0.0 | 0.00 | 0.32 | 0.02 | 80 | 1002.8 |
| 20260506155026 | 54 | 0 | 0.0 | 0.0 | 0.00 | 0.32 | 0.02 | 80 | 1002.8 |
| 20260506154028 | 54 | 0 | 0.0 | 0.0 | 0.00 | 0.32 | 0.02 | 81 | 1002.8 |
| 20260506153026 | 54 | 0 | 0.0 | 0.0 | 0.00 | 0.32 | 0.02 | 80 | 1002.8 |
| 20260506152025 | 54 | 0 | 0.0 | 0.0 | 0.00 | 0.32 | 0.02 | 80 | 1002.7 |
| 20260506151027 | 54 | 0 | 0.0 | 0.0 | 0.00 | 0.32 | 0.02 | 81 | 1002.6 |
| 20260506150026 | 54 | 0 | 0.0 | 0.0 | 0.00 | 0.32 | 0.02 | 81 | 1002.4 |
| 20260506145027 | 54 | 0 | 0.0 | 0.0 | 0.00 | 0.32 | 0.02 | 81 | 1002.4 |
| 20260506145023 | 54 | 0 | 0.0 | 0.0 | 0.00 | 0.32 | 0.02 | 82 | 1002.4 |
| 20260506143024 | 54 | 0 | 0.0 | 0.0 | 0.00 | 0.34 | 0.02 | 81 | 1002.2 |
| 20260506142026 | 55 | 0 | 0.0 | 0.0 | 0.00 | 0.34 | 0.02 | 80 | 1002.1 |
| 20260506141025 | 55 | 0 | 0.0 | 0.0 | 0.00 | 0.34 | 0.02 | 81 | 1002.1 |
| 20260506140031 | 55 | 0 | 0.0 | 0.0 | 0.00 | 0.35 | 0.02 | 81 | 1002.1 |
| 20260506140025 | 54 | 0 | 0.0 | 0.0 | 0.00 | 0.35 | 0.02 | 82 | 1002.2 |
| 20260506135026 | 54 | 0 | 0.0 | 0.0 | 0.00 | 0.35 | 0.02 | 84 | 1002.2 |
| 20260506134026 | 54 | 0 | 0.0 | 0.0 | 0.00 | 0.35 | 0.02 | 83 | 1002.3 |
| 20260506133026 | 54 | 0 | 0.0 | 0.0 | 0.00 | 0.35 | 0.02 | 83 | 1002.3 |
| 20260506132028 | 54 | 0 | 0.0 | 0.0 | 0.00 | 0.36 | 0.02 | 83 | 1002.2 |
| 20260506131025 | 54 | 0 | 0.0 | 0.0 | 0.00 | 0.36 | 0.02 | 83 | 1002.1 |
| 20260506130026 | 55 | 0 | 0.0 | 0.0 | 0.00 | 0.36 | 0.02 | 83 | 1002.1 |
| 20260506125026 | 55 | 0 | 0.0 | 0.0 | 0.00 | 0.37 | 0.02 | 84 | 1002.0 |
| 20260506124028 | 55 | 0 | 0.0 | 0.0 | 0.00 | 0.37 | 0.02 | 84 | 1002.0 |
| 20260506124025 | 55 | 0 | 0.0 | 0.0 | 0.00 | 0.37 | 0.02 | 83 | 1001.9 |
| 20260506123025 | 55 | 0 | 0.0 | 0.0 | 0.00 | 0.37 | 0.02 | 83 | 1001.8 |
| 20260506122026 | 55 | 0 | 0.0 | 0.0 | 0.00 | 0.37 | 0.02 | 84 | 1001.7 |
| 20260506121038 | 55 | 0 | 0.0 | 0.0 | 0.00 | 0.38 | 0.02 | 84 | 1001.7 |
| 20260506121034 | 55 | 0 | 0.0 | 0.0 | 0.00 | 0.38 | 0.02 | 85 | 1001.6 |
| 20260506120025 | 55 | 0 | 0.0 | 0.0 | 0.00 | 0.38 | 0.02 | 85 | 1001.5 |
| 20260506115025 | 55 | 0 | 0.0 | 0.0 | 0.00 | 0.38 | 0.02 | 84 | 1001.4 |
| 20260506114025 | 55 | 0 | 0.0 | 0.0 | 0.00 | 0.39 | 0.02 | 84 | 1001.4 |
| 20260506113024 | 55 | 0 | 0.0 | 0.0 | 0.00 | 0.39 | 0.02 | 84 | 1001.3 |
| 20260506112023 | 55 | 0 | 0.0 | 0.0 | 0.00 | 0.39 | 0.02 | 85 | 1001.3 |
| 20260506111024 | 55 | 0 | 0.0 | 0.0 | 0.00 | 0.39 | 0.02 | 85 | 1001.2 |
| 20260506110023 | 56 | 0 | 0.0 | 0.0 | 0.00 | 0.40 | 0.02 | 84 | 1001.2 |
| 20260506105025 | 56 | 0 | 0.0 | 0.0 | 0.00 | 0.41 | 0.02 | 86 | 1001.1 |
| 20260506104023 | 55 | 0 | 0.0 | 0.0 | 0.00 | 0.41 | 0.02 | 86 | 1001.1 |
| 20260506103023 | 56 | 0 | 0.0 | 0.0 | 0.00 | 0.41 | 0.02 | 87 | 1001.0 |
| 20260506102024 | 56 | 0 | 0.0 | 0.0 | 0.00 | 0.41 | 0.02 | 88 | 1000.8 |
| 20260506101024 | 55 | 0 | 0.0 | 0.0 | 0.00 | 0.41 | 0.02 | 88 | 1000.7 |
| 20260506100041 | 55 | 0 | 0.0 | 0.0 | 0.02 | 0.41 | 0.02 | 88 | 1000.7 |
| 20260506100034 | 55 | 0 | 0.0 | 0.0 | 0.02 | 0.41 | 0.02 | 89 | 1000.7 |
| 20260506094032 | 55 | 0 | 0.0 | 0.0 | 0.02 | 0.41 | 0.02 | 92 | 1000.6 |
| 20260506093038 | 55 | 0 | 0.0 | 0.0 | 0.02 | 0.41 | 0.02 | 92 | 1000.6 |
| 20260506093031 | 55 | 0 | 0.0 | 0.0 | 0.02 | 0.41 | 0.02 | 92 | 1000.5 |
| 20260506092040 | 55 | 0 | 0.0 | 0.0 | 0.02 | 0.41 | 0.02 | 92 | 1000.5 |
| 20260506092033 | 55 | 0 | 0.0 | 0.0 | 0.02 | 0.41 | 0.02 | 92 | 1000.4 |
| 20260506091040 | 55 | 0 | 0.0 | 0.0 | 0.02 | 0.41 | 0.02 | 92 | 1000.4 |
| 20260506091033 | 55 | 0 | 0.0 | 0.0 | 0.02 | 0.41 | 0.02 | 91 | 1000.4 |
| 20260506090024 | 55 | 0 | 0.0 | 0.0 | 0.00 | 0.39 | 0.01 | 90 | 1000.3 |
| 20260506085029 | 55 | 0 | 0.0 | 0.0 | 0.00 | 0.39 | 0.01 | 90 | 1000.2 |
| 20260506084023 | 55 | 0 | 0.0 | 0.0 | 0.00 | 0.39 | 0.01 | 89 | 1000.2 |
| 20260506083023 | 55 | 0 | 0.0 | 0.0 | 0.00 | 0.39 | 0.01 | 90 | 1000.1 |
| 20260506082041 | 55 | 0 | 0.0 | 0.0 | 0.00 | 0.39 | 0.01 | 90 | 1000.1 |
| 20260506082033 | 55 | 0 | 0.0 | 0.0 | 0.00 | 0.39 | 0.01 | 90 | 1000.1 |
| 20260506081024 | 55 | 0 | 0.0 | 0.0 | 0.00 | 0.39 | 0.01 | 90 | 1000.0 |
| 20260506073040 | 54 | 0 | 0.0 | 0.0 | 0.00 | 0.39 | 0.01 | 93 | 1000.1 |
| 20260506073031 | 53 | 0 | 0.0 | 0.0 | 0.00 | 0.39 | 0.01 | 94 | 1000.1 |
| 20260506072035 | 53 | 0 | 0.0 | 0.0 | 0.00 | 0.39 | 0.01 | 94 | 1000.1 |
| 20260506072030 | 53 | 0 | 0.0 | 0.0 | 0.00 | 0.39 | 0.01 | 94 | 1000.1 |
| 20260506071053 | 53 | 0 | 0.0 | 0.0 | 0.00 | 0.39 | 0.01 | 94 | 1000.1 |
| 20260506071048 | 53 | 0 | 0.0 | 0.0 | 0.00 | 0.39 | 0.01 | 94 | 1000.2 |
| 20260506062024 | 52 | 0 | 0.0 | 0.0 | 0.00 | 0.39 | 0.01 | 95 | 1000.1 |
| 20260506061037 | 52 | 0 | 0.0 | 0.0 | 0.00 | 0.39 | 0.01 | 95 | 1000.1 |
| 20260506061031 | 51 | 0 | 0.0 | 0.0 | 0.00 | 0.39 | 0.01 | 94 | 1000.1 |
| 20260506051038 | 51 | 0 | 0.0 | 0.0 | 0.00 | 0.39 | 0.01 | 94 | 999.9 |
| 20260506051032 | 51 | 0 | 0.0 | 0.0 | 0.00 | 0.39 | 0.01 | 94 | 1000.0 |
| 20260506045036 | 51 | 0 | 0.0 | 0.0 | 0.00 | 0.39 | 0.01 | 94 | 999.9 |
| 20260506045030 | 51 | 0 | 0.0 | 0.0 | 0.00 | 0.39 | 0.01 | 93 | 999.9 |
| 20260506044024 | 51 | 0 | 0.0 | 0.0 | 0.00 | 0.39 | 0.01 | 93 | 999.9 |
| 20260506043037 | 51 | 0 | 0.0 | 0.0 | 0.00 | 0.39 | 0.01 | 93 | 999.9 |
| 20260506043031 | 51 | 0 | 0.0 | 0.0 | 0.00 | 0.39 | 0.01 | 93 | 1000.0 |
| 20260506042030 | 51 | 0 | 0.0 | 0.0 | 0.00 | 0.39 | 0.01 | 93 | 1000.0 |
| 20260506041035 | 51 | 0 | 0.0 | 0.0 | 0.00 | 0.39 | 0.01 | 93 | 1000.0 |
| 20260506041029 | 51 | 0 | 0.0 | 0.0 | 0.00 | 0.39 | 0.01 | 93 | 1000.1 |
| 20260506040036 | 51 | 0 | 0.0 | 0.0 | 0.00 | 0.39 | 0.01 | 93 | 1000.1 |
| 20260506040030 | 51 | 0 | 0.0 | 0.0 | 0.00 | 0.39 | 0.01 | 94 | 1000.2 |
| 20260506035032 | 51 | 0 | 0.0 | 0.0 | 0.00 | 0.39 | 0.01 | 94 | 1000.2 |
| 20260506034041 | 51 | 0 | 0.0 | 0.0 | 0.00 | 0.39 | 0.01 | 94 | 1000.3 |
| 20260506033034 | 51 | 0 | 0.0 | 0.0 | 0.00 | 0.39 | 0.01 | 94 | 1000.4 |
| 20260506032029 | 51 | 0 | 0.0 | 0.0 | 0.00 | 0.39 | 0.01 | 95 | 1000.5 |
| 20260506031027 | 51 | 0 | 0.0 | 0.0 | 0.00 | 0.39 | 0.01 | 95 | 1000.5 |
| 20260506030035 | 51 | 0 | 0.0 | 0.0 | 0.00 | 0.39 | 0.01 | 95 | 1000.5 |
| 20260506025031 | 51 | 0 | 0.0 | 0.0 | 0.00 | 0.39 | 0.01 | 95 | 1000.4 |
| 20260506024035 | 51 | 0 | 0.0 | 0.0 | 0.00 | 0.39 | 0.01 | 95 | 1000.4 |
| 20260506024030 | 52 | 0 | 0.0 | 0.0 | 0.00 | 0.39 | 0.01 | 95 | 1000.4 |
| 20260506023036 | 52 | 0 | 0.0 | 0.0 | 0.00 | 0.39 | 0.01 | 95 | 1000.4 |
| 20260506023029 | 52 | 0 | 0.0 | 0.0 | 0.00 | 0.39 | 0.01 | 95 | 1000.3 |
| 20260506022035 | 52 | 0 | 0.0 | 0.0 | 0.00 | 0.39 | 0.01 | 95 | 1000.3 |
| 20260506022029 | 52 | 0 | 0.0 | 0.0 | 0.00 | 0.39 | 0.01 | 96 | 1000.3 |
| 20260506021034 | 52 | 0 | 0.0 | 0.0 | 0.00 | 0.39 | 0.01 | 96 | 1000.3 |
| 20260506021028 | 52 | 0 | 0.0 | 0.0 | 0.00 | 0.39 | 0.01 | 95 | 1000.3 |
| 20260506020029 | 52 | 0 | 0.0 | 0.0 | 0.00 | 0.39 | 0.01 | 95 | 1000.3 |
| 20260506015042 | 52 | 0 | 0.0 | 0.0 | 0.00 | 0.39 | 0.01 | 95 | 1000.3 |
| 20260506015036 | 53 | 0 | 0.0 | 0.0 | 0.00 | 0.39 | 0.01 | 95 | 1000.3 |
| 20260506014039 | 53 | 0 | 0.0 | 0.0 | 0.00 | 0.39 | 0.01 | 95 | 1000.3 |
| 20260506014033 | 53 | 0 | 0.0 | 0.0 | 0.00 | 0.39 | 0.01 | 96 | 1000.4 |
| 20260506013040 | 53 | 0 | 0.0 | 0.0 | 0.00 | 0.39 | 0.01 | 96 | 1000.4 |
| 20260506013033 | 53 | 0 | 0.0 | 0.0 | 0.00 | 0.39 | 0.01 | 96 | 1000.6 |
| 20260506012036 | 53 | 0 | 0.0 | 0.0 | 0.01 | 0.39 | 0.01 | 96 | 1000.6 |
| 20260506012031 | 53 | 0 | 0.0 | 0.0 | 0.01 | 0.39 | 0.01 | 96 | 1000.7 |
| 20260506010035 | 53 | 0 | 0.0 | 0.0 | 0.01 | 0.39 | 0.01 | 97 | 1000.8 |
| 20260506010030 | 53 | 0 | 0.0 | 0.0 | 0.01 | 0.39 | 0.01 | 97 | 1000.9 |
| 20260506005039 | 53 | 0 | 0.0 | 0.0 | 0.01 | 0.39 | 0.01 | 97 | 1001.0 |
| 20260506004034 | 53 | 0 | 0.0 | 0.0 | 0.01 | 0.39 | 0.01 | 97 | 1001.0 |
| 20260506004029 | 53 | 0 | 0.0 | 0.0 | 0.01 | 0.39 | 0.01 | 97 | 1001.1 |
| 20260506003036 | 53 | 0 | 0.0 | 0.0 | 0.01 | 0.39 | 0.01 | 97 | 1001.1 |
| 20260506003030 | 52 | 0 | 0.0 | 0.0 | 0.01 | 0.39 | 0.01 | 98 | 1001.1 |
| 20260506002041 | 52 | 0 | 0.0 | 0.0 | 0.01 | 0.39 | 0.01 | 98 | 1001.1 |
| 20260506002034 | 52 | 0 | 0.0 | 0.0 | 0.00 | 0.39 | 0.00 | 98 | 1001.3 |
| 20260506001029 | 51 | 0 | 0.0 | 0.0 | 0.00 | 0.39 | 0.00 | 98 | 1001.4 |
| 20260506000036 | 51 | 0 | 0.0 | 0.0 | 0.00 | 0.39 | 0.00 | 98 | 1001.4 |
| 20260506000028 | 51 | 0 | 0.0 | 0.0 | 0.00 | 0.39 | 0.00 | 97 | 1001.4 |
| 20260505235041 | 51 | 0 | 0.0 | 0.0 | 0.00 | 0.39 | 0.00 | 97 | 1001.4 |
| 20260505235033 | 51 | 0 | 0.0 | 0.0 | 0.00 | 0.39 | 0.00 | 98 | 1001.4 |
| 20260505234037 | 51 | 0 | 0.0 | 0.0 | 0.00 | 0.39 | 0.00 | 98 | 1001.4 |
| 20260505234030 | 51 | 0 | 0.0 | 0.0 | 0.00 | 0.39 | 0.00 | 98 | 1001.5 |
| 20260505233032 | 51 | 0 | 0.0 | 0.0 | 0.00 | 0.39 | 0.00 | 98 | 1001.5 |
| 20260505232039 | 51 | 0 | 0.0 | 0.0 | 0.00 | 0.39 | 0.00 | 98 | 1001.5 |
| 20260505232031 | 51 | 0 | 0.0 | 0.0 | 0.00 | 0.39 | 0.00 | 97 | 1001.5 |
| 20260505231029 | 51 | 0 | 0.0 | 0.0 | 0.00 | 0.39 | 0.00 | 97 | 1001.5 |
| 20260505230033 | 51 | 0 | 0.0 | 0.0 | 0.00 | 0.39 | 0.00 | 97 | 1001.5 |
| 20260505225032 | 51 | 0 | 0.0 | 0.0 | 0.00 | 0.39 | 0.00 | 97 | 1001.5 |
| 20260505224038 | 51 | 0 | 0.0 | 0.0 | 0.00 | 0.39 | 0.00 | 97 | 1001.5 |
| 20260505224029 | 52 | 0 | 0.0 | 0.0 | 0.00 | 0.39 | 0.00 | 97 | 1001.5 |
| 20260505223039 | 52 | 0 | 0.0 | 0.0 | 0.00 | 0.39 | 0.00 | 97 | 1001.6 |
| 20260505221035 | 52 | 0 | 0.0 | 0.0 | 0.00 | 0.39 | 0.00 | 97 | 1001.7 |
| 20260505220033 | 52 | 0 | 0.0 | 0.0 | 0.00 | 0.39 | 0.00 | 97 | 1001.7 |
| 20260505215054 | 52 | 0 | 0.0 | 0.0 | 0.00 | 0.39 | 0.39 | 97 | 1001.7 |
| 20260505215044 | 52 | 0 | 0.0 | 0.0 | 0.00 | 0.39 | 0.39 | 96 | 1001.8 |
| 20260505214048 | 52 | 0 | 0.0 | 0.0 | 0.00 | 0.39 | 0.39 | 96 | 1001.8 |
| 20260505214037 | 53 | 0 | 0.0 | 0.0 | 0.00 | 0.39 | 0.39 | 96 | 1001.8 |
| 20260505213027 | 53 | 0 | 0.0 | 0.0 | 0.00 | 0.39 | 0.39 | 96 | 1001.8 |
| 20260505212024 | 53 | 0 | 0.0 | 0.0 | 0.00 | 0.39 | 0.39 | 96 | 1001.8 |
| 20260505211023 | 54 | 0 | 0.0 | 0.0 | 0.00 | 0.39 | 0.39 | 96 | 1001.9 |
| 20260505210026 | 54 | 0 | 0.0 | 0.0 | 0.00 | 0.39 | 0.39 | 96 | 1001.9 |
| 20260505210024 | 54 | 0 | 0.0 | 0.0 | 0.00 | 0.39 | 0.39 | 96 | 1001.8 |
| 20260505205019 | 54 | 0 | 0.0 | 0.0 | 0.00 | 0.39 | 0.39 | 95 | 1001.8 |
| 20260505204020 | 54 | 0 | 0.0 | 0.0 | 0.00 | 0.39 | 0.39 | 95 | 1001.8 |
| 20260505203021 | 54 | 0 | 0.0 | 0.0 | 0.00 | 0.39 | 0.39 | 96 | 1001.8 |
| 20260505202032 | 54 | 0 | 0.0 | 0.0 | 0.00 | 0.39 | 0.39 | 96 | 1001.8 |
| 20260505202022 | 54 | 0 | 0.0 | 0.0 | 0.00 | 0.39 | 0.39 | 96 | 1001.7 |
| 20260505201027 | 54 | 0 | 0.0 | 0.0 | 0.01 | 0.39 | 0.39 | 96 | 1001.7 |
| 20260505201024 | 54 | 0 | 0.0 | 0.0 | 0.01 | 0.39 | 0.39 | 96 | 1001.6 |
| 20260505195017 | 54 | 0 | 0.0 | 0.0 | 0.02 | 0.39 | 0.39 | 96 | 1001.5 |